User: anonymous   Login
Location: Irma
(52.9170°N, 111.2330°W)
Time: 05:10:04
(UTC-06:00)
Language:

Meteor 1-24 Rocket - Orbit

View from above orbital plane
View from above orbital plane
View from above satellite
View from above satellite

Ground track
Ground track

The orbit data is extracted from the following two-line orbital elements,

1  8800U 76032B   17145.50156345 +.00000080 +00000-0 +37260-4 0  9991
2  8800 081.2524 239.4006 0092979 249.0320 110.0884 14.10091181114789
Epoch (UTC): 25 May 2017 12:02:15
Eccentricity: 0.0092979
inclination: 81.2524°
perigee height: 792 km
apogee height: 926 km
right ascension of ascending node: 239.4006°
argument of perigee: 249.0320°
revolutions per day: 14.10091181
mean anomaly at epoch: 110.0884°
orbit number at epoch: 11478

The dashed part of the orbit path shows where the satellite is in the earth's shadow,  

DLR